Location: Calvatone
(45.1167°N, 10.4333°E)
Time: 08:58:09
(UTC+00:00)

XW-2F - Visible Passes

Search period start: 02 December 2023 00:00
Search period end: 12 December 2023 00:00
Orbit: 400 x 405 km, 97.4° (Epoch: 02 December)

Date Brightness Start Highest point End Pass type
(mag) Time Alt. Az. Time Alt. Az. Time Alt. Az.
03 Dec?17:28:40N17:28:40N17:18:46SSEvisible
04 Dec ? 06:05:01 10° NE 06:07:48 29° E 06:10:34 10° SSE visible
06 Dec ? 05:57:00 10° NE 05:59:33 22° E 06:02:03 10° SSE visible
08 Dec ? 05:48:21 10° NE 05:50:30 17° E 05:52:38 10° SE visible
10 Dec ? 05:39:12 10° ENE 05:40:41 13° E 05:42:09 10° ESE visible
